Location: Concepci�n
(32.5333°N, 117.1167°W)
Time: 19:15:21
(UTC+00:00)

Atlas Centaur 2 - Pass Details

Date: 08 May 2021
Orbit: 459 x 1309 km, 30.4° (Epoch: 18 June)

Event Time Altitude Azimuth Distance (km) Brightness Sun altitude
Exits shadow 12:18:02 - 215° (SW) 3,187 4.7 -8.0°
Reaches altitude 10° 12:19:45 10° 207° (SSW) 2,654 4.3 -7.7°
Maximum altitude 12:24:31 22° 158° (SSE) 1,703 3.8 -6.8°
Drops below altitude 10° 12:28:32 10° 108° (ESE) 2,200 5.2 -6.0°
Sets 12:31:09 0° 93° (E) 2,978 6.4 -5.5°
